Meteo pe oră la Bolshoe Ababe

Astăzi, 8 Mai, Sâmbătă

Timp Temperatura Precipitaţii Vânt Presiune Umiditate
00:00 +3°C° 0 mm 2 m/s 741 mmHg 93%
01:00 +2°C° 0 mm 2 m/s 741 mmHg 94%
02:00 +1°C° 0 mm 2 m/s 742 mmHg 96%
03:00 +1°C° 0 mm 2 m/s 742 mmHg 96%
04:00 +1°C° 0 mm 2 m/s 742 mmHg 97%
05:00 0°C° 0 mm 3 m/s 742 mmHg 97%
06:00 0°C° 0 mm 3 m/s 743 mmHg 93%
07:00 0°C° 0 mm 4 m/s 743 mmHg 89%
08:00 +1°C° 0 mm 4 m/s 744 mmHg 86%
09:00 +3°C° 0 mm 4 m/s 744 mmHg 79%
10:00 +3°C° 0 mm 5 m/s 744 mmHg 72%
11:00 +5°C° 0 mm 5 m/s 745 mmHg 66%
12:00 +6°C° 0 mm 5 m/s 745 mmHg 58%
13:00 +7°C° 0 mm 6 m/s 745 mmHg 51%
14:00 +7°C° 0 mm 6 m/s 745 mmHg 44%
15:00 +7°C° 0 mm 6 m/s 745 mmHg 48%
16:00 +7°C° 0 mm 5 m/s 746 mmHg 51%
17:00 +7°C° 0 mm 5 m/s 746 mmHg 54%
18:00 +6°C° 0 mm 4 m/s 746 mmHg 58%
19:00 +4°C° 0 mm 4 m/s 747 mmHg 62%
20:00 +3°C° 0 mm 3 m/s 747 mmHg 65%
21:00 +2°C° 0 mm 3 m/s 748 mmHg 69%
22:00 +1°C° 0 mm 3 m/s 748 mmHg 73%
23:00 +1°C° 0 mm 2 m/s 749 mmHg 76%

Mâine, 9 Mai, Duminică

Timp Temperatura Precipitaţii Vânt Presiune Umiditate
00:00 -1°C° 0 mm 2 m/s 749 mmHg 78%
01:00 -1°C° 0 mm 2 m/s 750 mmHg 79%
02:00 -1°C° 0 mm 2 m/s 750 mmHg 81%
03:00 -1°C° 0 mm 2 m/s 751 mmHg 80%
04:00 -1°C° 0 mm 2 m/s 751 mmHg 78%
05:00 -1°C° 0 mm 2 m/s 752 mmHg 77%
06:00 +2°C° 0 mm 2 m/s 752 mmHg 69%
07:00 +4°C° 0 mm 2 m/s 752 mmHg 61%
08:00 +7°C° 0 mm 2 m/s 753 mmHg 53%
09:00 +8°C° 0 mm 2 m/s 753 mmHg 49%
10:00 +9°C° 0 mm 2 m/s 753 mmHg 45%
11:00 +10°C° 0 mm 3 m/s 753 mmHg 42%
12:00 +11°C° 0 mm 3 m/s 753 mmHg 41%
13:00 +12°C° 0 mm 3 m/s 753 mmHg 41%
14:00 +12°C° 0 mm 3 m/s 753 mmHg 41%
15:00 +12°C° 0 mm 3 m/s 753 mmHg 43%
16:00 +12°C° 0 mm 3 m/s 753 mmHg 45%
17:00 +12°C° 0 mm 3 m/s 753 mmHg 48%
18:00 +11°C° 0 mm 3 m/s 753 mmHg 56%
19:00 +9°C° 0 mm 3 m/s 753 mmHg 64%
20:00 +7°C° 0 mm 3 m/s 754 mmHg 72%
21:00 +7°C° 0 mm 3 m/s 754 mmHg 72%
22:00 +7°C° 0 mm 3 m/s 754 mmHg 71%
23:00 +7°C° 0 mm 3 m/s 754 mmHg 70%

Poimâine, 10 Mai, Luni

Timp Temperatura Precipitaţii Vânt Presiune Umiditate
00:00 +8°C° 0 mm 3 m/s 754 mmHg 69%
01:00 +7°C° 0 mm 4 m/s 754 mmHg 68%
02:00 +7°C° 0 mm 4 m/s 754 mmHg 67%
03:00 +7°C° 0 mm 4 m/s 754 mmHg 68%
04:00 +7°C° 0 mm 4 m/s 754 mmHg 69%
05:00 +7°C° 0 mm 4 m/s 754 mmHg 70%
06:00 +8°C° 0 mm 4 m/s 755 mmHg 69%
07:00 +10°C° 0 mm 4 m/s 755 mmHg 67%
08:00 +11°C° 0 mm 4 m/s 755 mmHg 65%
09:00 +13°C° 0 mm 5 m/s 755 mmHg 61%
10:00 +15°C° 0 mm 5 m/s 755 mmHg 57%
11:00 +17°C° 0 mm 5 m/s 755 mmHg 54%
12:00 +17°C° 0 mm 5 m/s 755 mmHg 53%
13:00 +19°C° 0 mm 5 m/s 755 mmHg 52%
14:00 +20°C° 0 mm 6 m/s 755 mmHg 51%
15:00 +19°C° 0 mm 5 m/s 755 mmHg 54%
16:00 +19°C° 0 mm 5 m/s 755 mmHg 57%
17:00 +19°C° 0 mm 5 m/s 755 mmHg 60%
18:00 +17°C° 0 mm 4 m/s 755 mmHg 66%
19:00 +15°C° 0 mm 4 m/s 755 mmHg 72%
20:00 +13°C° 0 mm 3 m/s 755 mmHg 78%
21:00 +12°C° 0 mm 3 m/s 756 mmHg 79%
22:00 +11°C° 0 mm 3 m/s 756 mmHg 80%
23:00 +11°C° 0 mm 4 m/s 756 mmHg 81%

11 Mai, Marţi

Timp Temperatura Precipitaţii Vânt Presiune Umiditate
00:00 +10°C° 0 mm 4 m/s 756 mmHg 81%
01:00 +9°C° 0 mm 3 m/s 756 mmHg 81%
02:00 +9°C° 0 mm 3 m/s 756 mmHg 81%
03:00 +9°C° 0 mm 3 m/s 756 mmHg 80%
04:00 +8°C° 0 mm 3 m/s 756 mmHg 80%
05:00 +7°C° 0 mm 4 m/s 756 mmHg 80%
06:00 +10°C° 0 mm 4 m/s 756 mmHg 74%
07:00 +10°C° 0 mm 5 m/s 756 mmHg 69%
08:00 +13°C° 0 mm 5 m/s 756 mmHg 64%
09:00 +14°C° 0 mm 5 m/s 756 mmHg 59%
10:00 +15°C° 0 mm 5 m/s 756 mmHg 53%
11:00 +17°C° 0 mm 6 m/s 756 mmHg 48%
12:00 +17°C° 0 mm 6 m/s 756 mmHg 46%
13:00 +19°C° 0 mm 6 m/s 756 mmHg 44%
14:00 +20°C° 0 mm 6 m/s 755 mmHg 42%
15:00 +20°C° 0 mm 5 m/s 755 mmHg 46%
16:00 +20°C° 0 mm 5 m/s 755 mmHg 50%
17:00 +19°C° 0 mm 5 m/s 755 mmHg 54%
18:00 +18°C° 0 mm 4 m/s 754 mmHg 60%
19:00 +15°C° 0 mm 4 m/s 754 mmHg 66%
20:00 +13°C° 0 mm 4 m/s 754 mmHg 72%
21:00 +12°C° 0 mm 4 m/s 754 mmHg 74%
22:00 +11°C° 0 mm 4 m/s 754 mmHg 75%
23:00 +10°C° 0 mm 3 m/s 754 mmHg 77%

12 Mai, Miercuri

Timp Temperatura Precipitaţii Vânt Presiune Umiditate
00:00 +10°C° 0 mm 3 m/s 754 mmHg 80%
01:00 +9°C° 0 mm 3 m/s 754 mmHg 83%
02:00 +8°C° 0 mm 3 m/s 754 mmHg 86%
03:00 +8°C° 0 mm 2 m/s 754 mmHg 87%
04:00 +8°C° 0 mm 2 m/s 754 mmHg 88%
05:00 +8°C° 0 mm 2 m/s 754 mmHg 89%
06:00 +11°C° 0 mm 3 m/s 754 mmHg 84%
07:00 +13°C° 0 mm 3 m/s 754 mmHg 79%
08:00 +16°C° 0 mm 3 m/s 754 mmHg 74%
09:00 +17°C° 0 mm 4 m/s 753 mmHg 69%
10:00 +19°C° 0 mm 4 m/s 753 mmHg 64%
11:00 +20°C° 0 mm 5 m/s 753 mmHg 59%
12:00 +21°C° 0 mm 5 m/s 752 mmHg 56%
13:00 +22°C° 0 mm 5 m/s 752 mmHg 53%
14:00 +23°C° 0 mm 5 m/s 751 mmHg 50%
15:00 +20°C° 0.1 mm 5 m/s 752 mmHg 61%
16:00 +17°C° 0.1 mm 5 m/s 752 mmHg 72%
17:00 +15°C° 0.1 mm 4 m/s 752 mmHg 83%
18:00 +14°C° 0 mm 4 m/s 752 mmHg 84%
19:00 +13°C° 0 mm 3 m/s 752 mmHg 84%
20:00 +12°C° 0 mm 3 m/s 752 mmHg 85%
21:00 +11°C° 0 mm 3 m/s 752 mmHg 88%
22:00 +10°C° 0 mm 2 m/s 752 mmHg 90%
23:00 +9°C° 0 mm 2 m/s 752 mmHg 93%

13 Mai, Joi

Timp Temperatura Precipitaţii Vânt Presiune Umiditate
00:00 +9°C° 0 mm 2 m/s 752 mmHg 94%
01:00 +8°C° 0 mm 2 m/s 751 mmHg 95%
02:00 +8°C° 0 mm 2 m/s 751 mmHg 96%
03:00 +8°C° 0 mm 2 m/s 751 mmHg 96%
04:00 +8°C° 0 mm 2 m/s 750 mmHg 96%
05:00 +8°C° 0 mm 2 m/s 750 mmHg 96%
06:00 +10°C° 0.1 mm 2 m/s 749 mmHg 93%
07:00 +11°C° 0.1 mm 3 m/s 749 mmHg 91%
08:00 +12°C° 0.1 mm 3 m/s 748 mmHg 88%
09:00 +13°C° 0.4 mm 3 m/s 747 mmHg 89%
10:00 +13°C° 0.4 mm 3 m/s 747 mmHg 91%
11:00 +14°C° 0.4 mm 3 m/s 746 mmHg 92%
12:00 +13°C° 0.6 mm 4 m/s 746 mmHg 91%
13:00 +12°C° 0.6 mm 4 m/s 746 mmHg 90%
14:00 +10°C° 0.6 mm 5 m/s 746 mmHg 88%
15:00 +12°C° 0.2 mm 5 m/s 746 mmHg 85%
16:00 +13°C° 0.2 mm 5 m/s 745 mmHg 82%
17:00 +13°C° 0.2 mm 4 m/s 745 mmHg 79%
18:00 +12°C° 0.1 mm 4 m/s 746 mmHg 80%
19:00 +11°C° 0.1 mm 4 m/s 746 mmHg 82%
20:00 +11°C° 0.1 mm 4 m/s 746 mmHg 84%
21:00 +10°C° 0 mm 3 m/s 746 mmHg 84%
22:00 +10°C° 0 mm 3 m/s 746 mmHg 85%
23:00 +10°C° 0 mm 3 m/s 746 mmHg 85%
Arată mai mult

Formular de consimțământ

Meteoprog și furnizorii noștri de servicii pot stoca și accesa date personale, precum cookies, identificatori de dispozitiv sau alte tehnologii similare pe dispozitivul dumneavoastră și procesa astfel de date pentru a personaliza conținutul și reclamele, dar și pentru a oferi caracteristici de social media și pentru a analiza traficul.

  • Stocarea și/sau accesarea informațiilor pe dispozitivul dumneavoastră

    Cookies, identificatori de dispozitiv sau alte informații pot fi stocate sau accesate pe dispozitiv în scopurile indicate mai sus.

  • Reclame și conținut personalizat, evaluarea reclamelor și a conținutului, informații despre audiențe și dezvoltarea produselor

    Reclamele și conținutul pot fi personalizate pe baza unui profil. Pot fi adăugate date suplimentare pentru a personaliza mai bine reclamele și conținutul. Performanța reclamelor și conținutului poate fi măsurată. Pot fi obținute informații despre utilizatorii care au văzut reclamele și conținutul. Aceste date pot fi utilizate pentru a dezvolta sau îmbunătăți experiența utilizatorilor, sistemele și software-ul.

Dând clic pe ‘Sunt de acord’, permiteți utilizarea cookie-urilor menționate, a identificatorilor de dispozitiv, balizelor web sau altor tehnologii similare. Setările pot fi modificate din browser-ul dispozitivului dumneavoastră.

În anumite scopuri, interesele legitime pot prima asupra consimțământului. Puteți citi mai multe informații în acest sens în Politica privind Confidențialitatea Datelor și Cookie.